This is the latest recevied weather packets stored in our database for station/object KJ6APE. If no packets are shown the sender has not sent any weather packets the latest 10 day(s).
| Time | Temp. | Humidity | Pressure | Rain* | Wind** | Luminosity | Snow |
|---|---|---|---|---|---|---|---|
| 1777522326 | 15° C | 67% | 1016.3 hPa | 0 mm | - | 0 W/m² | - |
| 1777522023 | 15° C | 65% | 1016.3 hPa | 0 mm | - | 0 W/m² | - |
| 1777521720 | 15.56° C | 62% | 1016.2 hPa | 0 mm | - | 0 W/m² | - |
| 1777521417 | 15.56° C | 62% | 1016.3 hPa | 0 mm | - | 0 W/m² | - |
| 1777521113 | 16.11° C | 61% | 1016.3 hPa | 0 mm | - | 0 W/m² | - |
| 1777520811 | 16.67° C | 59% | 1016 hPa | 0 mm | - | 0 W/m² | - |
| 1777520508 | 16.67° C | 59% | 1016.1 hPa | 0 mm | - | 0 W/m² | - |
| 1777520204 | 16.67° C | 59% | 1016.2 hPa | 0 mm | - | 0 W/m² | - |
| 1777519902 | 17.22° C | 59% | 1016.2 hPa | 0 mm | - | 0 W/m² | - |
| 1777519599 | 17.22° C | 58% | 1016.1 hPa | 0 mm | - | 0 W/m² | - |
| 1777519295 | 17.78° C | 58% | 1016 hPa | 0 mm | - | 0 W/m² | - |
| 1777518992 | 17.78° C | 57% | 1016.1 hPa | 0 mm | - | 0 W/m² | - |
| 1777518688 | 18.33° C | 58% | 1016 hPa | 0 mm | - | 1 W/m² | - |
| 1777518386 | 18.33° C | 58% | 1016 hPa | 0 mm | - | 1 W/m² | - |
| 1777518081 | 18.89° C | 58% | 1015.9 hPa | 0 mm | - | 3 W/m² | - |
| 1777517777 | 19.44° C | 57% | 1015.8 hPa | 0 mm | - | 6 W/m² | - |
| 1777517473 | 20° C | 55% | 1015.8 hPa | 0 mm | - | 9 W/m² | - |
| 1777517172 | 20.56° C | 54% | 1015.7 hPa | 0 mm | - | 13 W/m² | - |
| 1777516870 | 21.11° C | 52% | 1015.8 hPa | 0 mm | - | 17 W/m² | - |
| 1777516566 | 21.11° C | 50% | 1015.6 hPa | 0 mm | - | 21 W/m² | - |
| 1777516262 | 21.11° C | 51% | 1015.5 hPa | 0 mm | - | 30 W/m² | - |
| 1777515958 | 21.67° C | 50% | 1015.5 hPa | 0 mm | - | 35 W/m² | - |
| 1777515655 | 21.11° C | 50% | 1015.5 hPa | 0 mm | - | 41 W/m² | - |
| 1777515352 | 21.11° C | 50% | 1015.5 hPa | 0 mm | - | 44 W/m² | - |
| 1777515048 | 21.67° C | 49% | 1015.4 hPa | 0 mm | - | 56 W/m² | - |
* Rain latest hour (hover to see other rain measurements)
** Current wind speed in m/s (hover to see current wind gust speed)